Time,TemperatureF,DewpointF,PressureIn,WindDirection,WindDirectionDegrees,WindSpeedMPH,WindSpeedGustMPH,Humidity,HourlyPrecipIn,Conditions,Clouds,dailyrainin,SoftwareType,DateUTC
2013-08-10 00:11:00,55.0,54.0,-100.00,NW,315,5.0,6.0,94,0.00,,,0.00,,2013-08-10 05:11:00,
2013-08-10 00:32:00,55.0,54.0,-100.00,NW,315,4.0,5.0,95,0.00,,,0.00,,2013-08-10 05:32:00,
2013-08-10 01:02:00,55.0,54.0,-100.00,NW,315,4.0,6.0,94,0.00,,,0.00,,2013-08-10 06:02:00,
2013-08-10 01:11:00,54.0,54.0,-100.00,NW,315,3.0,5.0,96,0.00,,,0.00,,2013-08-10 06:11:00,
2013-08-10 01:32:00,55.0,54.0,-100.00,WNW,300,4.0,5.0,93,0.00,,,0.00,,2013-08-10 06:32:00,
2013-08-10 01:53:00,54.0,52.0,-100.00,WNW,285,2.0,4.0,91,0.00,,,0.00,,2013-08-10 06:53:00,
2013-08-10 02:02:00,53.0,52.0,-100.00,West,275,2.0,3.0,94,0.00,,,0.00,,2013-08-10 07:02:00,
2013-08-10 02:12:00,53.0,52.0,-100.00,NW,310,4.0,4.0,96,0.00,,,0.00,,2013-08-10 07:12:00,
2013-08-10 02:33:00,53.0,52.0,-100.00,NW,310,5.0,6.0,95,0.00,,,0.00,,2013-08-10 07:33:00,
2013-08-10 02:43:00,54.0,52.0,-100.00,NW,305,4.0,6.0,94,0.00,,,0.00,,2013-08-10 07:43:00,
2013-08-10 03:01:00,53.0,52.0,-100.00,NW,305,4.0,4.0,95,0.00,,,0.00,,2013-08-10 08:01:00,
2013-08-10 03:22:00,53.0,52.0,-100.00,NW,305,4.0,4.0,95,0.00,,,0.00,,2013-08-10 08:22:00,
2013-08-10 03:53:00,53.0,52.0,-100.00,NW,315,3.0,6.0,96,0.00,,,0.00,,2013-08-10 08:53:00,
2013-08-10 04:02:00,52.0,52.0,-100.00,NW,315,2.0,3.0,96,0.00,,,0.00,,2013-08-10 09:02:00,
2013-08-10 04:12:00,52.0,52.0,-100.00,NW,315,2.0,3.0,96,0.00,,,0.00,,2013-08-10 09:12:00,
2013-08-10 04:21:00,52.0,52.0,-100.00,NW,315,2.0,3.0,96,0.00,,,0.00,,2013-08-10 09:21:00,
2013-08-10 04:32:00,51.0,50.0,-100.00,South,190,0.0,1.0,97,0.00,,,0.00,,2013-08-10 09:32:00,
2013-08-10 05:33:00,52.0,52.0,-100.00,West,270,2.0,4.0,98,0.00,,,0.00,,2013-08-10 10:33:00,
2013-08-10 05:44:00,52.0,52.0,-100.00,West,270,2.0,4.0,98,0.00,,,0.00,,2013-08-10 10:44:00,
2013-08-10 05:52:00,52.0,52.0,-100.00,West,270,2.0,4.0,98,0.00,,,0.00,,2013-08-10 10:52:00,
2013-08-10 06:43:00,52.0,52.0,-100.00,WNW,300,3.0,4.0,98,0.00,,,0.00,,2013-08-10 11:43:00,
2013-08-10 07:01:00,53.0,52.0,-100.00,NW,310,4.0,4.0,98,0.00,,,0.00,,2013-08-10 12:01:00,
2013-08-10 07:22:00,53.0,52.0,-100.00,NW,310,2.0,5.0,96,0.00,,,0.00,,2013-08-10 12:22:00,
2013-08-10 07:42:00,54.0,54.0,-100.00,NNW,335,3.0,4.0,95,0.00,,,0.00,,2013-08-10 12:42:00,
2013-08-10 07:52:00,56.0,54.0,-100.00,NNW,335,3.0,4.0,94,0.00,,,0.00,,2013-08-10 12:52:00,
2013-08-10 08:01:00,56.0,55.0,-100.00,NNW,335,3.0,4.0,93,0.00,,,0.00,,2013-08-10 13:01:00,
2013-08-10 08:11:00,57.0,55.0,-100.00,NW,325,2.0,3.0,92,0.00,,,0.00,,2013-08-10 13:11:00,
2013-08-10 08:21:00,58.0,55.0,-100.00,NW,305,2.0,2.0,91,0.00,,,0.00,,2013-08-10 13:21:00,
2013-08-10 08:32:00,59.0,55.0,-100.00,NNW,340,2.0,2.0,89,0.00,,,0.00,,2013-08-10 13:32:00,
2013-08-10 08:43:00,60.0,57.0,-100.00,NNW,330,1.0,2.0,90,0.00,,,0.00,,2013-08-10 13:43:00,
2013-08-10 08:52:00,62.0,57.0,-100.00,North,350,1.0,2.0,86,0.00,,,0.00,,2013-08-10 13:52:00,
2013-08-10 09:12:00,64.0,57.0,-100.00,NNE,20,0.0,2.0,76,0.00,,,0.00,,2013-08-10 14:12:00,
2013-08-10 09:22:00,65.0,57.0,-100.00,NNW,340,0.0,2.0,75,0.00,,,0.00,,2013-08-10 14:22:00,
2013-08-10 09:32:00,65.0,57.0,-100.00,North,5,1.0,2.0,78,0.00,,,0.00,,2013-08-10 14:32:00,
2013-08-10 09:53:00,66.0,57.0,-100.00,ENE,65,1.0,2.0,73,0.00,,,0.00,,2013-08-10 14:53:00,
2013-08-10 10:02:00,68.0,59.0,-100.00,North,0,1.0,2.0,74,0.00,,,0.00,,2013-08-10 15:02:00,
2013-08-10 10:11:00,67.0,57.0,-100.00,East,85,1.0,4.0,68,0.00,,,0.00,,2013-08-10 15:11:00,
2013-08-10 10:52:00,69.0,55.0,-100.00,NE,55,3.0,4.0,61,0.00,,,0.00,,2013-08-10 15:52:00,
2013-08-10 11:01:00,68.0,54.0,-100.00,ENE,60,3.0,5.0,60,0.00,,,0.00,,2013-08-10 16:01:00,
2013-08-10 11:11:00,69.0,55.0,-100.00,North,5,4.0,6.0,60,0.00,,,0.00,,2013-08-10 16:11:00,
2013-08-10 11:22:00,70.0,54.0,-100.00,East,80,0.0,5.0,55,0.00,,,0.00,,2013-08-10 16:22:00,
2013-08-10 11:32:00,70.0,55.0,-100.00,NE,40,1.0,5.0,58,0.00,,,0.00,,2013-08-10 16:32:00,
2013-08-10 11:53:00,69.0,55.0,-100.00,SW,235,1.0,4.0,62,0.00,,,0.00,,2013-08-10 16:53:00,
2013-08-10 12:12:00,70.0,55.0,-100.00,SW,220,1.0,2.0,58,0.00,,,0.00,,2013-08-10 17:12:00,
2013-08-10 12:33:00,71.0,55.0,-100.00,East,100,2.0,7.0,57,0.00,,,0.00,,2013-08-10 17:33:00,
2013-08-10 12:52:00,72.0,55.0,-100.00,SE,140,3.0,8.0,55,0.00,,,0.00,,2013-08-10 17:52:00,
2013-08-10 13:01:00,72.0,54.0,-100.00,East,85,3.0,6.0,52,0.00,,,0.00,,2013-08-10 18:01:00,
2013-08-10 13:11:00,71.0,52.0,-100.00,SE,140,2.0,7.0,51,0.00,,,0.00,,2013-08-10 18:11:00,
2013-08-10 13:52:00,72.0,52.0,-100.00,WSW,245,1.0,4.0,49,0.00,,,0.00,,2013-08-10 18:52:00,
2013-08-10 14:02:00,73.0,55.0,-100.00,WNW,290,2.0,5.0,52,0.00,,,0.00,,2013-08-10 19:02:00,
2013-08-10 14:11:00,73.0,55.0,-100.00,SSW,195,5.0,7.0,54,0.00,,,0.00,,2013-08-10 19:11:00,
2013-08-10 14:32:00,72.0,55.0,-100.00,SE,135,2.0,7.0,55,0.00,,,0.00,,2013-08-10 19:32:00,
2013-08-10 14:53:00,74.0,55.0,-100.00,NE,40,1.0,4.0,50,0.00,,,0.00,,2013-08-10 19:53:00,
2013-08-10 15:22:00,74.0,61.0,-100.00,SSW,210,3.0,9.0,62,0.00,,,0.00,,2013-08-10 20:22:00,
2013-08-10 16:02:00,74.0,55.0,-100.00,ENE,65,2.0,6.0,51,0.00,,,0.00,,2013-08-10 21:02:00,
2013-08-10 16:12:00,75.0,59.0,-100.00,West,270,2.0,6.0,57,0.00,,,0.00,,2013-08-10 21:12:00,
2013-08-10 16:32:00,74.0,55.0,-100.00,SSW,200,4.0,7.0,52,0.00,,,0.00,,2013-08-10 21:32:00,
2013-08-10 16:52:00,74.0,57.0,-100.00,South,190,1.0,3.0,53,0.00,,,0.00,,2013-08-10 21:52:00,
2013-08-10 17:11:00,74.0,57.0,-100.00,South,175,2.0,3.0,54,0.00,,,0.00,,2013-08-10 22:11:00,
2013-08-10 17:32:00,73.0,59.0,-100.00,ESE,110,4.0,5.0,63,0.00,,,0.00,,2013-08-10 22:32:00,
2013-08-10 17:43:00,72.0,59.0,-100.00,SE,125,3.0,6.0,61,0.00,,,0.00,,2013-08-10 22:43:00,
2013-08-10 17:52:00,73.0,59.0,-100.00,SSE,150,2.0,2.0,60,0.00,,,0.00,,2013-08-10 22:52:00,
2013-08-10 18:01:00,72.0,59.0,-100.00,East,80,2.0,4.0,62,0.00,,,0.00,,2013-08-10 23:01:00,
2013-08-10 18:12:00,72.0,59.0,-100.00,East,80,2.0,4.0,62,0.00,,,0.00,,2013-08-10 23:12:00,
2013-08-10 18:32:00,72.0,61.0,-100.00,East,95,4.0,6.0,67,0.00,,,0.00,,2013-08-10 23:32:00,
2013-08-10 18:43:00,72.0,61.0,-100.00,East,90,4.0,6.0,65,0.00,,,0.00,,2013-08-10 23:43:00,
2013-08-10 18:53:00,72.0,59.0,-100.00,East,90,4.0,7.0,65,0.00,,,0.00,,2013-08-10 23:53:00,
2013-08-10 19:01:00,71.0,61.0,-100.00,East,100,6.0,7.0,69,0.00,,,0.00,,2013-08-11 00:01:00,
2013-08-10 19:11:00,71.0,61.0,-100.00,East,95,4.0,7.0,67,0.00,,,0.00,,2013-08-11 00:11:00,
2013-08-10 19:22:00,71.0,61.0,-100.00,East,100,4.0,6.0,70,0.00,,,0.00,,2013-08-11 00:22:00,
2013-08-10 20:11:00,69.0,61.0,-100.00,ENE,60,6.0,7.0,72,0.00,,,0.00,,2013-08-11 01:11:00,
2013-08-10 20:32:00,68.0,61.0,-100.00,NE,50,2.0,5.0,76,0.00,,,0.00,,2013-08-11 01:32:00,
2013-08-10 20:53:00,69.0,61.0,-100.00,East,100,5.0,8.0,71,0.00,,,0.00,,2013-08-11 01:53:00,
2013-08-10 21:02:00,69.0,61.0,-100.00,East,100,5.0,8.0,73,0.00,,,0.00,,2013-08-11 02:02:00,
2013-08-10 21:11:00,67.0,63.0,-100.00,SE,140,6.0,6.0,82,0.00,,,0.00,,2013-08-11 02:11:00,
2013-08-10 21:56:00,67.0,61.0,-100.00,ESE,105,6.0,7.0,80,0.00,,,0.00,,2013-08-11 02:56:00,
2013-08-10 22:16:00,67.0,63.0,-100.00,SE,130,3.0,6.0,83,0.00,,,0.00,,2013-08-11 03:16:00,
2013-08-10 22:54:00,66.0,63.0,-100.00,East,90,3.0,4.0,90,0.00,,,0.00,,2013-08-11 03:54:00,
2013-08-10 23:53:00,65.0,63.0,-100.00,East,100,6.0,7.0,94,0.00,,,0.00,,2013-08-11 04:53:00,